Flag for Norway Weather past 2 weeks in Rygge, Norway

Now
54 °F

Overcast.


Feels Like: 54 °F
Forecast: 43 / 55 °F
Wind: 3 mph from North

Location: Rygge

Current Time: Sep 21, 2014 at 10:29:35 AM

Latest Report: Sep 21, 2014 at 9:00 AM


Visibility: 17 mi

Pressure: 29.78 "Hg

Humidity: 92%

Dew point: 52 °F

Location of RyggeLocation

Historic Weather in Rygge — Graph

°F

Rygge temperature yesterday

Maximum temperature yesterday: 62 °F (at 2:00 PM)
Minimum temperature yesterday: 44 °F (at 7:00 AM)
Average temperature yesterday: 53 °F

Past Weeks' High & Low Weather Summary

 TemperatureHumidityPressure
High68 °F (Sep 14, 4:00 PM)99% (Sep 11, 6:00 AM)30.48 "Hg (Sep 11, 6:00 AM)
Low44 °F (Sep 18, 6:00 AM)46% (Sep 14, 5:00 PM)29.78 "Hg (Sep 21, 7:00 AM)
Average55 °F82%30.23 "Hg
* Reported Sep 9 2:00 PM — Sep 21 9:00 AM, Rygge, Weather by CustomWeather, © 2014

Note: Actual official high and low records may vary slightly from our data, if they occured in-between our weather recording intervals... More about our weather records

Advertising

Rygge weather history for previous 24 hours

 ConditionsComfort  
Time TempWeatherWind HumidityBarometerVisibility
9:00 AM
Sep 21
54 °FOvercast.3 mph92%29.78 "Hg17 mi
8:00 AM53 °FOvercast.1 mph98%29.78 "Hg4 mi
7:00 AM53 °FLight rain. Overcast.2 mph98%29.78 "Hg4 mi
6:00 AM54 °FLight rain. Overcast.1 mph97%29.79 "Hg3 mi
5:00 AM54 °FLight rain. Passing clouds.2 mph97%29.79 "Hg6 mi
4:00 AM53 °FRain showers. Passing clouds.1 mph95%29.80 "Hg6 mi
3:00 AM54 °FOvercast.No wind92%29.81 "Hg10 mi
2:00 AM55 °FPassing clouds.1 mph88%29.82 "Hg13 mi
1:00 AM57 °FOvercast.3 mph85%29.82 "Hg11 mi
12:00 AM57 °FPassing clouds.3 mph84%29.83 "Hg14 mi
11:00 PM
Sep 20
58 °FPassing clouds.3 mph82%29.84 "Hg17 mi
10:00 PM59 °FPassing clouds.5 mph82%29.86 "Hg14 mi
9:00 PM58 °FPassing clouds.5 mph83%29.87 "Hg16 mi
8:00 PM58 °FPassing clouds.3 mph84%29.88 "Hg18 mi
7:00 PM59 °FSunny.5 mph82%29.89 "Hg19 mi
3:00 PM62 °FSunny.7 mph70%29.93 "Hg17 mi
2:00 PM62 °FSunny.7 mph63%29.95 "Hg15 mi
1:00 PM61 °FSunny.6 mph67%29.96 "Hg17 mi
11:00 AM57 °FPartly sunny.2 mph89%29.98 "Hg9 mi
10:00 AM53 °FLow clouds.1 mph96%29.99 "Hg10 mi
Weather by CustomWeather, © 2014

See weather overviewHow to use our weather pages